Location: Calais Saint-Pierre
(50.9509°N, 1.8522°E)
Time: 10:55:21
(UTC+00:00)

Cosmos 1725 Rocket - Pass Details

Date: 15 May 2026
Orbit: 960 x 991 km, 82.9° (Epoch: 5 June)

Event Time Altitude Azimuth Distance (km) Brightness Sun altitude
Rises 20:26:44 0° 196° (SSW) 3,674 6.7 -7.2°
Reaches altitude 10° 20:29:16 10° 199° (SSW) 2,726 6.1 -7.5°
Maximum altitude 20:35:29 68° 282° (WNW) 1,046 4.4 -8.2°
Drops below altitude 10° 20:41:43 10° 6° (N) 2,723 6.9 -8.9°
Sets 20:44:15 0° 9° (N) 3,670 7.6 -9.2°
